TimeEST,TemperatureF,Dew PointF,Humidity,Sea Level PressureIn,VisibilityMPH,Wind Direction,Wind SpeedMPH,Gust SpeedMPH,PrecipitationIn,Events,Conditions,WindDirDegrees,DateUTC
12:52 AM,35.1,28.9,78,30.00,10.0,South,5.8,-,N/A,,Clear,180,2013-02-15 05:52:00
1:52 AM,34.0,28.9,82,29.99,10.0,South,6.9,-,N/A,,Clear,180,2013-02-15 06:52:00
2:52 AM,34.0,28.9,82,29.99,10.0,South,9.2,-,N/A,,Clear,190,2013-02-15 07:52:00
3:52 AM,33.1,28.0,82,29.99,10.0,South,8.1,-,N/A,,Scattered Clouds,190,2013-02-15 08:52:00
4:52 AM,33.1,28.0,82,29.99,10.0,SSW,4.6,-,N/A,,Scattered Clouds,200,2013-02-15 09:52:00
5:52 AM,35.1,28.9,78,30.01,10.0,Calm,Calm,-,N/A,,Mostly Cloudy,0,2013-02-15 10:52:00
6:52 AM,34.0,27.0,75,30.02,10.0,Calm,Calm,-,N/A,,Partly Cloudy,0,2013-02-15 11:52:00
7:52 AM,33.1,28.0,82,30.02,10.0,SSE,3.5,-,N/A,,Partly Cloudy,150,2013-02-15 12:52:00
8:52 AM,39.9,28.9,65,30.04,10.0,Calm,Calm,-,N/A,,Partly Cloudy,0,2013-02-15 13:52:00
9:52 AM,42.1,30.9,65,30.04,10.0,Calm,Calm,-,N/A,,Partly Cloudy,0,2013-02-15 14:52:00
10:52 AM,48.9,33.1,54,30.03,10.0,Calm,Calm,-,N/A,,Scattered Clouds,0,2013-02-15 15:52:00
11:52 AM,55.0,32.0,42,30.00,10.0,Calm,Calm,-,N/A,,Scattered Clouds,0,2013-02-15 16:52:00
12:52 PM,57.0,32.0,39,29.96,10.0,SSE,8.1,17.3,N/A,,Scattered Clouds,150,2013-02-15 17:52:00
1:52 PM,57.9,32.0,37,29.94,10.0,SSW,9.2,17.3,N/A,,Scattered Clouds,200,2013-02-15 18:52:00
2:52 PM,55.9,28.9,36,29.93,10.0,SSW,9.2,-,N/A,,Mostly Cloudy,210,2013-02-15 19:52:00
3:52 PM,57.0,30.0,36,29.90,10.0,SSW,9.2,-,N/A,,Mostly Cloudy,200,2013-02-15 20:52:00
4:52 PM,50.0,34.0,54,29.94,10.0,NW,26.5,34.5,N/A,,Overcast,320,2013-02-15 21:52:00
5:01 PM,48.2,35.6,62,29.93,9.0,NW,19.6,33.4,0.00,Rain,Light Rain,320,2013-02-15 22:01:00
5:52 PM,44.1,37.0,76,29.94,10.0,North,16.1,21.9,0.00,,Mostly Cloudy,350,2013-02-15 22:52:00
6:52 PM,42.1,36.0,79,29.96,10.0,North,18.4,23.0,N/A,,Overcast,350,2013-02-15 23:52:00
7:52 PM,39.2,35.6,87,29.99,10.0,NNW,17.3,25.3,N/A,Rain,Light Rain,330,2013-02-16 00:52:00
8:25 PM,37.4,33.8,87,30.01,10.0,NNW,10.4,19.6,0.01,Rain,Light Rain,340,2013-02-16 01:25:00
8:52 PM,37.0,34.0,89,30.03,7.0,NNW,10.4,-,0.02,Rain,Light Rain,340,2013-02-16 01:52:00
9:05 PM,35.6,33.8,93,30.03,8.0,NNW,10.4,-,0.01,Rain,Light Rain,330,2013-02-16 02:05:00
9:15 PM,35.6,33.8,93,30.03,5.0,NNW,10.4,-,0.02,Rain,Light Rain,330,2013-02-16 02:15:00
9:39 PM,35.6,33.8,93,30.03,7.0,North,5.8,-,0.04,Rain,Light Rain,350,2013-02-16 02:39:00
9:49 PM,35.6,33.8,93,30.03,8.0,North,4.6,-,0.05,Rain,Light Rain,350,2013-02-16 02:49:00
9:52 PM,35.1,33.1,92,30.04,8.0,NW,3.5,-,0.05,Rain,Light Rain,320,2013-02-16 02:52:00
10:52 PM,36.0,34.0,93,30.02,10.0,Calm,Calm,-,0.03,,Overcast,0,2013-02-16 03:52:00
11:52 PM,36.0,33.1,89,30.02,10.0,Calm,Calm,-,N/A,,Overcast,0,2013-02-16 04:52:00